When you browse on this site, cookies collect data to enhance your experience and personalize the content and advertising you see.
Visit our Privacy Policy to learn more. By continuing to use the site, you agree to this use of cookies and data.

Meteo orario Begino

Oggi, 11 Luglio, Sabato

Tempo Temperatura Precipitazioni Vento Pressione Umidità
00:00 +15°C° 0 mm 2 m/s 751 mm Hg 81%
01:00 +13°C° 0 mm 3 m/s 751 mm Hg 82%
02:00 +14°C° 0 mm 2 m/s 752 mm Hg 79%
03:00 +14°C° 0 mm 2 m/s 752 mm Hg 81%
04:00 +14°C° 0 mm 3 m/s 752 mm Hg 82%
05:00 +14°C° 0 mm 3 m/s 752 mm Hg 83%
06:00 +17°C° 0 mm 3 m/s 752 mm Hg 80%
07:00 +18°C° 0 mm 4 m/s 752 mm Hg 76%
08:00 +20°C° 0 mm 4 m/s 752 mm Hg 73%
09:00 +21°C° 0 mm 5 m/s 752 mm Hg 71%
10:00 +22°C° 0 mm 5 m/s 752 mm Hg 69%
11:00 +23°C° 0 mm 5 m/s 752 mm Hg 67%
12:00 +25°C° 0 mm 5 m/s 751 mm Hg 67%
13:00 +25°C° 0 mm 5 m/s 751 mm Hg 68%
14:00 +26°C° 0 mm 5 m/s 751 mm Hg 68%
15:00 +26°C° 0 mm 4 m/s 751 mm Hg 71%
16:00 +25°C° 0 mm 4 m/s 750 mm Hg 74%
17:00 +25°C° 0 mm 4 m/s 750 mm Hg 76%
18:00 +24°C° 0 mm 3 m/s 750 mm Hg 81%
19:00 +21°C° 0 mm 3 m/s 750 mm Hg 86%
20:00 +20°C° 0 mm 3 m/s 750 mm Hg 90%
21:00 +19°C° 0 mm 3 m/s 750 mm Hg 91%
22:00 +19°C° 0 mm 3 m/s 750 mm Hg 91%
23:00 +18°C° 0 mm 3 m/s 750 mm Hg 92%

Domani, 12 Luglio, Domenica

Tempo Temperatura Precipitazioni Vento Pressione Umidità
00:00 +18°C° 0 mm 3 m/s 750 mm Hg 92%
01:00 +17°C° 0 mm 3 m/s 749 mm Hg 92%
02:00 +17°C° 0 mm 3 m/s 749 mm Hg 92%
03:00 +17°C° 0 mm 3 m/s 749 mm Hg 91%
04:00 +17°C° 0 mm 2 m/s 749 mm Hg 90%
05:00 +17°C° 0 mm 2 m/s 749 mm Hg 89%
06:00 +19°C° 0 mm 2 m/s 749 mm Hg 84%
07:00 +21°C° 0 mm 2 m/s 749 mm Hg 79%
08:00 +23°C° 0 mm 2 m/s 749 mm Hg 75%
09:00 +24°C° 0 mm 3 m/s 749 mm Hg 72%
10:00 +25°C° 0 mm 3 m/s 748 mm Hg 69%
11:00 +26°C° 0 mm 3 m/s 748 mm Hg 67%
12:00 +26°C° 0 mm 3 m/s 748 mm Hg 66%
13:00 +27°C° 0 mm 3 m/s 747 mm Hg 66%
14:00 +27°C° 0 mm 3 m/s 747 mm Hg 65%
15:00 +27°C° 0 mm 3 m/s 747 mm Hg 67%
16:00 +26°C° 0 mm 3 m/s 746 mm Hg 69%
17:00 +26°C° 0 mm 2 m/s 746 mm Hg 71%
18:00 +24°C° 0 mm 2 m/s 746 mm Hg 75%
19:00 +23°C° 0 mm 2 m/s 746 mm Hg 79%
20:00 +21°C° 0 mm 1 m/s 746 mm Hg 83%
21:00 +19°C° 0 mm 2 m/s 745 mm Hg 84%
22:00 +19°C° 0 mm 2 m/s 745 mm Hg 85%
23:00 +18°C° 0 mm 2 m/s 745 mm Hg 86%

Dopodomani, 13 Luglio, Lunedi

Tempo Temperatura Precipitazioni Vento Pressione Umidità
00:00 +18°C° 0 mm 2 m/s 745 mm Hg 87%
01:00 +17°C° 0 mm 2 m/s 744 mm Hg 88%
02:00 +18°C° 0 mm 1 m/s 744 mm Hg 89%
03:00 +18°C° 0 mm 1 m/s 744 mm Hg 88%
04:00 +19°C° 0 mm 1 m/s 744 mm Hg 88%
05:00 +19°C° 0 mm 1 m/s 743 mm Hg 87%
06:00 +21°C° 0 mm 1 m/s 743 mm Hg 82%
07:00 +22°C° 0 mm 1 m/s 743 mm Hg 77%
08:00 +24°C° 0 mm 1 m/s 743 mm Hg 72%
09:00 +25°C° 0.1 mm 1 m/s 743 mm Hg 70%
10:00 +25°C° 0.1 mm 1 m/s 743 mm Hg 67%
11:00 +26°C° 0.1 mm 1 m/s 742 mm Hg 65%
12:00 +26°C° 0.4 mm 1 m/s 742 mm Hg 65%
13:00 +26°C° 0.4 mm 1 m/s 742 mm Hg 65%
14:00 +27°C° 0.4 mm 1 m/s 742 mm Hg 65%
15:00 +26°C° 1.2 mm 1 m/s 741 mm Hg 70%
16:00 +26°C° 1.2 mm 2 m/s 741 mm Hg 75%
17:00 +25°C° 1.2 mm 2 m/s 741 mm Hg 80%
18:00 +23°C° 1.7 mm 2 m/s 741 mm Hg 84%
19:00 +21°C° 1.7 mm 3 m/s 741 mm Hg 88%
20:00 +20°C° 1.7 mm 4 m/s 741 mm Hg 92%
21:00 +19°C° 1.8 mm 4 m/s 741 mm Hg 94%
22:00 +19°C° 1.8 mm 4 m/s 740 mm Hg 96%
23:00 +18°C° 1.8 mm 4 m/s 740 mm Hg 97%

14 Luglio, Martedi

Tempo Temperatura Precipitazioni Vento Pressione Umidità
00:00 +18°C° 1.3 mm 4 m/s 740 mm Hg 97%
01:00 +18°C° 1.3 mm 4 m/s 740 mm Hg 97%
02:00 +18°C° 1.3 mm 4 m/s 740 mm Hg 98%
03:00 +17°C° 1.8 mm 5 m/s 740 mm Hg 97%
04:00 +17°C° 1.8 mm 5 m/s 740 mm Hg 97%
05:00 +16°C° 1.8 mm 5 m/s 740 mm Hg 97%
06:00 +16°C° 1.5 mm 5 m/s 740 mm Hg 97%
07:00 +16°C° 1.5 mm 5 m/s 740 mm Hg 97%
08:00 +16°C° 1.5 mm 6 m/s 740 mm Hg 96%
09:00 +16°C° 0.2 mm 6 m/s 740 mm Hg 96%
10:00 +16°C° 0.2 mm 6 m/s 740 mm Hg 95%
11:00 +16°C° 0.2 mm 6 m/s 741 mm Hg 95%
12:00 +16°C° 0 mm 6 m/s 741 mm Hg 92%
13:00 +17°C° 0 mm 6 m/s 741 mm Hg 90%
14:00 +19°C° 0 mm 6 m/s 741 mm Hg 88%
15:00 +19°C° 0 mm 6 m/s 741 mm Hg 87%
16:00 +19°C° 0 mm 6 m/s 741 mm Hg 87%
17:00 +19°C° 0 mm 6 m/s 741 mm Hg 86%
18:00 +17°C° 0 mm 6 m/s 741 mm Hg 87%
19:00 +17°C° 0 mm 5 m/s 741 mm Hg 88%
20:00 +16°C° 0 mm 5 m/s 741 mm Hg 89%
21:00 +16°C° 0 mm 5 m/s 741 mm Hg 86%
22:00 +16°C° 0 mm 5 m/s 741 mm Hg 84%
23:00 +16°C° 0 mm 5 m/s 741 mm Hg 82%

15 Luglio, Mercoledi

Tempo Temperatura Precipitazioni Vento Pressione Umidità
00:00 +16°C° 0.3 mm 5 m/s 741 mm Hg 83%
01:00 +15°C° 0.3 mm 5 m/s 741 mm Hg 83%
02:00 +15°C° 0.3 mm 5 m/s 741 mm Hg 83%
03:00 +15°C° 1.5 mm 6 m/s 741 mm Hg 86%
04:00 +15°C° 1.5 mm 6 m/s 741 mm Hg 88%
05:00 +14°C° 1.5 mm 6 m/s 741 mm Hg 91%
06:00 +14°C° 1.3 mm 6 m/s 741 mm Hg 90%
07:00 +15°C° 1.3 mm 6 m/s 741 mm Hg 89%
08:00 +15°C° 1.3 mm 6 m/s 741 mm Hg 88%
09:00 +15°C° 1.2 mm 6 m/s 741 mm Hg 89%
10:00 +15°C° 1.2 mm 6 m/s 741 mm Hg 90%
11:00 +14°C° 1.2 mm 6 m/s 741 mm Hg 91%
12:00 +14°C° 1.6 mm 6 m/s 741 mm Hg 92%
13:00 +14°C° 1.6 mm 6 m/s 742 mm Hg 92%
14:00 +14°C° 1.6 mm 6 m/s 742 mm Hg 93%
15:00 +13°C° 0.6 mm 6 m/s 742 mm Hg 92%
16:00 +13°C° 0.6 mm 6 m/s 742 mm Hg 92%
17:00 +11°C° 0.6 mm 6 m/s 743 mm Hg 91%
18:00 +11°C° 0.1 mm 6 m/s 743 mm Hg 90%
19:00 +11°C° 0.1 mm 6 m/s 743 mm Hg 89%
20:00 +11°C° 0.1 mm 6 m/s 743 mm Hg 88%
21:00 +12°C° 0.2 mm 5 m/s 743 mm Hg 89%
22:00 +12°C° 0.2 mm 5 m/s 743 mm Hg 91%
23:00 +12°C° 0.2 mm 5 m/s 743 mm Hg 92%

16 Luglio, Giovedi

Tempo Temperatura Precipitazioni Vento Pressione Umidità
00:00 +12°C° 0.2 mm 5 m/s 743 mm Hg 92%
01:00 +12°C° 0.2 mm 5 m/s 743 mm Hg 92%
02:00 +12°C° 0.2 mm 5 m/s 743 mm Hg 92%
03:00 +12°C° 0 mm 4 m/s 743 mm Hg 92%
04:00 +12°C° 0 mm 4 m/s 742 mm Hg 91%
05:00 +12°C° 0 mm 4 m/s 742 mm Hg 91%
06:00 +13°C° 0 mm 4 m/s 742 mm Hg 90%
07:00 +13°C° 0 mm 4 m/s 742 mm Hg 88%
08:00 +14°C° 0 mm 4 m/s 742 mm Hg 87%
09:00 +15°C° 0 mm 4 m/s 742 mm Hg 82%
10:00 +18°C° 0 mm 4 m/s 742 mm Hg 76%
11:00 +20°C° 0 mm 4 m/s 742 mm Hg 70%
12:00 +20°C° 0.1 mm 4 m/s 742 mm Hg 71%
13:00 +20°C° 0.1 mm 4 m/s 742 mm Hg 73%
14:00 +20°C° 0.1 mm 4 m/s 742 mm Hg 74%
15:00 +20°C° 0.1 mm 3 m/s 742 mm Hg 76%
16:00 +20°C° 0.1 mm 3 m/s 742 mm Hg 77%
17:00 +20°C° 0.1 mm 3 m/s 742 mm Hg 79%
18:00 +19°C° 0.1 mm 2 m/s 742 mm Hg 82%
19:00 +17°C° 0.1 mm 2 m/s 742 mm Hg 85%
20:00 +16°C° 0.1 mm 1 m/s 742 mm Hg 88%
21:00 +15°C° 0 mm 1 m/s 742 mm Hg 88%
22:00 +14°C° 0 mm 1 m/s 742 mm Hg 89%
23:00 +14°C° 0 mm 1 m/s 742 mm Hg 90%
Mostrare altro